Temp
-13 -13 -14 -14 -13 -13 -13 -13 -13 -12 -13 -12 -12 -12 -13 -13 -13 -13 -13 -14 -14 -14 -13 -13 -13 -12 -13 -12 -12 -12 -11 -11 -11 -11 -10 -10 -9 -9 -9 -9 -9 -9 -9 -9 -9
-14 -14 -14 -14 -14 -14 -14 -14 -13 -13 -13 -13 -13 -13 -13 -13 -14 -13 -14 -14 -14 -14 -14 -14 -13 -13 -12 -12 -12 -12 -12 -11 -11 -11 -11 -10 -10 -10 -10 -9 -10 -10 -9 -9 -9
-15 -15 -15 -15 -15 -15 -14 -14 -14 -14 -13 -13 -14 -13 -14 -14 -15 -13 -14 -14 -14 -15 -14 -14 -14 -13 -12 -12 -12 -12 -12 -11 -11 -11 -11 -10 -10 -10 -10 -10 -10 -10 -10 -10 -9
-17 -17 -16 -16 -16 -16 -15 -15 -15 -14 -14 -14 -14 -15 -14 -15 -14 -14 -15 -15 -14 -15 -15 -15 -15 -14 -14 -13 -13 -12 -12 -11 -11 -11 -11 -11 -10 -10 -10 -10 -10 -10 -10 -10 -10
-18 -18 -17 -17 -16 -16 -16 -16 -15 -15 -15 -15 -15 -15 -16 -15 -15 -14 -15 -16 -15 -15 -15 -15 -15 -15 -14 -14 -13 -13 -12 -12 -12 -11 -11 -11 -10 -10 -10 -10 -10 -9 -9 -10 -10
-18 -18 -18 -17 -17 -17 -17 -17 -17 -16 -16 -16 -16 -16 -16 -15 -15 -15 -15 -16 -15 -16 -16 -16 -16 -15 -15 -15 -14 -13 -13 -12 -12 -12 -12 -11 -11 -10 -10 -10 -10 -10 -9 -9 -10
-20 -19 -18 -18 -17 -17 -17 -17 -17 -17 -17 -17 -17 -17 -17 -15 -16 -16 -15 -16 -16 -16 -16 -16 -16 -16 -15 -15 -14 -14 -13 -13 -13 -13 -12 -11 -11 -11 -11 -10 -10 -10 -10 -10 -10
-21 -21 -20 -20 -19 -18 -17 -18 -18 -18 -18 -18 -18 -17 -17 -17 -16 -16 -16 -16 -16 -17 -16 -17 -17 -16 -15 -15 -15 -14 -14 -13 -13 -13 -12 -12 -11 -12 -11 -10 -10 -10 -10 -10 -10
-21 -21 -21 -21 -20 -20 -19 -19 -19 -19 -19 -19 -19 -18 -17 -17 -16 -17 -17 -16 -17 -16 -17 -17 -17 -16 -16 -15 -15 -15 -13 -13 -13 -13 -13 -12 -11 -12 -11 -11 -11 -10 -10 -10 -10
-22 -22 -21 -21 -21 -21 -20 -20 -20 -20 -19 -19 -19 -19 -18 -16 -17 -17 -18 -17 -17 -16 -17 -17 -17 -16 -16 -15 -14 -15 -14 -14 -14 -14 -13 -13 -12 -12 -11 -11 -11 -10 -10 -11 -10
-22 -22 -22 -21 -21 -21 -21 -22 -22 -21 -20 -19 -18 -18 -17 -17 -18 -18 -18 -17 -17 -17 -17 -17 -17 -16 -16 -16 -15 -16 -16 -15 -15 -15 -14 -13 -12 -12 -11 -10 -10 -11 -10 -11 -11
-22 -22 -22 -22 -22 -22 -22 -22 -22 -20 -19 -19 -19 -19 -19 -18 -18 -19 -18 -18 -17 -18 -17 -18 -17 -17 -17 -17 -17 -16 -16 -16 -15 -15 -14 -14 -12 -12 -11 -10 -10 -10 -10 -11 -11
-24 -23 -22 -22 -22 -22 -21 -21 -22 -22 -21 -21 -20 -20 -19 -19 -19 -19 -19 -18 -17 -17 -18 -18 -17 -17 -18 -17 -17 -16 -16 -16 -16 -15 -14 -14 -12 -12 -11 -11 -10 -10 -11 -11 -11
-26 -24 -23 -22 -23 -22 -21 -21 -22 -22 -22 -21 -21 -20 -20 -19 -20 -19 -19 -17 -18 -18 -17 -17 -17 -17 -18 -18 -17 -17 -16 -16 -16 -16 -15 -14 -13 -13 -12 -11 -11 -11 -11 -11 -11
-27 -26 -24 -23 -22 -22 -21 -21 -23 -22 -22 -22 -22 -21 -21 -20 -19 -20 -19 -19 -18 -18 -19 -18 -18 -18 -18 -18 -18 -17 -17 -17 -17 -16 -16 -15 -14 -12 -12 -11 -11 -12 -11 -11 -11
-27 -26 -25 -23 -22 -22 -22 -22 -22 -22 -22 -22 -21 -21 -21 -21 -20 -20 -20 -20 -19 -20 -20 -19 -19 -19 -19 -19 -19 -18 -18 -17 -17 -17 -15 -14 -14 -11 -12 -12 -12 -12 -12 -11 -11
-27 -26 -24 -24 -22 -22 -21 -22 -22 -22 -22 -22 -21 -21 -20 -20 -20 -20 -20 -20 -19 -20 -19 -19 -19 -19 -19 -19 -19 -18 -18 -18 -18 -17 -15 -15 -15 -12 -12 -12 -12 -12 -12 -12 -12
-27 -27 -25 -24 -23 -24 -23 -22 -22 -22 -22 -21 -21 -21 -21 -21 -21 -21 -21 -21 -20 -20 -19 -19 -19 -18 -18 -18 -18 -18 -19 -18 -17 -16 -16 -16 -14 -13 -13 -13 -12 -12 -12 -12 -13
-27 -27 -25 -23 -24 -23 -23 -22 -22 -21 -21 -21 -21 -21 -21 -21 -21 -21 -21 -20 -20 -19 -19 -20 -19 -19 -18 -18 -18 -18 -18 -18 -18 -17 -16 -15 -14 -13 -13 -13 -13 -12 -12 -13 -13
-27 -27 -26 -23 -23 -22 -22 -22 -21 -21 -21 -21 -21 -21 -21 -21 -20 -21 -21 -20 -20 -20 -20 -20 -19 -19 -19 -19 -19 -18 -18 -19 -19 -18 -17 -15 -14 -13 -13 -14 -14 -13 -13 -13 -12
-28 -27 -25 -24 -24 -23 -23 -22 -21 -22 -21 -21 -21 -21 -21 -20 -20 -20 -20 -20 -20 -20 -20 -20 -20 -19 -19 -19 -19 -19 -19 -19 -19 -19 -18 -16 -14 -13 -13 -14 -14 -14 -13 -13 -13
-28 -27 -26 -26 -25 -23 -23 -22 -21 -21 -21 -21 -21 -21 -21 -20 -20 -20 -20 -20 -20 -20 -20 -20 -20 -20 -20 -20 -20 -20 -20 -20 -20 -20 -19 -17 -13 -14 -15 -14 -15 -15 -14 -14 -14
-27 -27 -26 -25 -24 -23 -23 -22 -21 -22 -21 -21 -21 -21 -21 -21 -21 -21 -20 -21 -20 -20 -20 -20 -20 -20 -21 -20 -20 -20 -20 -20 -20 -19 -19 -19 -13 -15 -15 -15 -15 -16 -16 -15 -15
-27 -27 -26 -25 -23 -23 -23 -22 -22 -22 -22 -21 -21 -21 -21 -21 -21 -21 -21 -21 -21 -21 -21 -21 -21 -21 -20 -20 -21 -21 -20 -21 -21 -20 -18 -18 -13 -15 -15 -15 -16 -17 -17 -16 -15
-27 -27 -25 -24 -23 -23 -23 -22 -22 -21 -21 -22 -22 -22 -22 -21 -21 -21 -21 -21 -21 -21 -21 -21 -21 -21 -20 -21 -21 -21 -21 -21 -20 -19 -19 -15 -17 -15 -16 -16 -16 -16 -16 -16 -15
-27 -26 -24 -23 -24 -23 -23 -22 -21 -21 -21 -21 -22 -22 -22 -22 -21 -21 -21 -21 -21 -21 -21 -21 -21 -21 -21 -21 -22 -21 -21 -20 -20 -19 -19 -18 -16 -17 -17 -17 -17 -16 -16 -16 -16
-26 -25 -24 -24 -23 -23 -21 -22 -22 -21 -21 -22 -22 -22 -22 -22 -23 -23 -23 -23 -22 -22 -22 -22 -22 -22 -22 -22 -22 -21 -20 -20 -20 -19 -19 -18 -15 -18 -17 -17 -15 -15 -17 -17 -17
Height
5698 5703 5710 5716 5723 5728 5732 5738 5744 5750 5756 5760 5765 5772 5774 5777 5781 5785 5791 5795 5799 5804 5809 5815 5821 5826 5828 5836 5838 5842 5846 5850 5852 5854 5858 5861 5865 5867 5870 5872 5874 5876 5878 5878 5879
5681 5687 5693 5700 5707 5714 5719 5725 5731 5738 5744 5749 5754 5759 5764 5766 5769 5778 5783 5785 5791 5796 5802 5808 5813 5820 5823 5828 5832 5836 5842 5845 5847 5849 5854 5856 5860 5863 5867 5868 5869 5872 5875 5875 5877
5662 5670 5676 5683 5690 5698 5706 5711 5718 5725 5732 5737 5743 5748 5751 5754 5758 5772 5771 5774 5783 5788 5792 5799 5805 5810 5817 5821 5827 5831 5837 5838 5841 5844 5849 5852 5855 5858 5862 5864 5864 5868 5871 5872 5874
5644 5652 5661 5668 5676 5683 5691 5698 5705 5712 5719 5725 5731 5734 5739 5742 5749 5760 5761 5767 5774 5780 5784 5790 5796 5801 5807 5813 5819 5824 5828 5831 5835 5838 5844 5847 5851 5854 5858 5860 5861 5865 5866 5867 5870
5627 5635 5644 5653 5661 5669 5677 5684 5691 5698 5706 5712 5717 5722 5725 5730 5743 5750 5753 5757 5765 5771 5776 5781 5786 5792 5798 5804 5809 5815 5822 5824 5828 5833 5837 5842 5847 5850 5854 5855 5856 5859 5861 5863 5866
5608 5617 5626 5636 5645 5653 5661 5670 5677 5685 5692 5698 5702 5710 5714 5721 5733 5738 5743 5748 5756 5762 5767 5771 5778 5783 5788 5795 5800 5807 5815 5818 5821 5826 5831 5836 5840 5845 5849 5849 5851 5855 5856 5859 5860
5587 5597 5608 5618 5629 5638 5646 5656 5664 5672 5679 5686 5691 5697 5701 5718 5721 5727 5733 5741 5745 5752 5757 5761 5767 5774 5780 5786 5792 5798 5806 5811 5815 5819 5824 5829 5833 5842 5841 5844 5846 5848 5852 5853 5856
5567 5578 5589 5600 5611 5622 5633 5642 5650 5658 5666 5673 5678 5684 5692 5699 5710 5717 5722 5730 5738 5742 5747 5751 5756 5762 5769 5779 5785 5789 5795 5803 5810 5812 5816 5821 5829 5835 5834 5837 5841 5843 5845 5848 5850
5548 5561 5572 5584 5596 5607 5618 5628 5635 5642 5650 5658 5663 5670 5680 5692 5700 5703 5713 5720 5726 5733 5737 5742 5746 5753 5761 5770 5776 5781 5789 5796 5801 5805 5807 5811 5821 5827 5827 5830 5835 5837 5839 5842 5844
5529 5542 5556 5569 5582 5594 5604 5613 5619 5624 5632 5641 5650 5658 5674 5688 5690 5697 5703 5708 5714 5721 5725 5729 5736 5743 5752 5760 5769 5775 5782 5787 5791 5795 5796 5803 5811 5820 5819 5823 5828 5830 5833 5837 5839
5506 5522 5538 5554 5568 5580 5590 5596 5600 5604 5619 5637 5649 5656 5667 5676 5681 5690 5697 5702 5707 5709 5713 5717 5725 5736 5750 5754 5759 5763 5770 5775 5781 5783 5786 5793 5799 5813 5813 5817 5823 5826 5831 5834 5835
5479 5500 5519 5539 5555 5566 5574 5580 5591 5612 5614 5620 5632 5642 5655 5663 5672 5680 5688 5696 5701 5702 5705 5710 5717 5730 5735 5740 5747 5753 5759 5766 5771 5774 5778 5783 5789 5806 5806 5812 5817 5819 5825 5829 5830
5457 5478 5501 5523 5541 5552 5561 5573 5588 5596 5600 5610 5622 5633 5643 5652 5662 5673 5681 5688 5691 5694 5699 5705 5714 5718 5725 5731 5738 5746 5752 5756 5761 5766 5769 5774 5779 5794 5801 5802 5808 5813 5818 5822 5825
5440 5459 5483 5507 5520 5540 5547 5564 5578 5585 5590 5595 5605 5618 5629 5641 5649 5661 5672 5675 5682 5686 5693 5695 5701 5709 5717 5724 5730 5736 5744 5746 5751 5754 5761 5765 5766 5784 5793 5796 5802 5808 5812 5816 5818
5428 5443 5467 5486 5509 5526 5536 5552 5566 5574 5571 5584 5592 5607 5618 5626 5644 5651 5662 5666 5672 5681 5687 5695 5698 5703 5709 5716 5721 5727 5732 5735 5739 5744 5749 5758 5756 5778 5785 5791 5797 5801 5804 5807 5810
5418 5432 5453 5472 5494 5518 5532 5543 5549 5556 5555 5568 5585 5595 5606 5617 5629 5639 5648 5657 5667 5672 5682 5687 5692 5698 5704 5708 5713 5717 5723 5726 5729 5733 5738 5754 5749 5759 5777 5784 5789 5791 5795 5797 5801
5408 5423 5440 5460 5487 5508 5516 5525 5531 5533 5546 5561 5579 5591 5602 5611 5620 5629 5639 5646 5656 5667 5673 5681 5686 5693 5696 5702 5707 5712 5717 5719 5722 5725 5736 5739 5740 5746 5769 5774 5778 5781 5785 5787 5789
5398 5412 5430 5452 5474 5494 5509 5509 5515 5525 5541 5558 5574 5584 5592 5601 5610 5622 5629 5637 5646 5658 5668 5672 5679 5686 5692 5697 5703 5706 5708 5712 5715 5719 5727 5725 5733 5744 5753 5761 5763 5768 5772 5776 5776
5391 5402 5418 5443 5465 5485 5495 5495 5499 5518 5537 5553 5566 5574 5581 5591 5604 5611 5621 5635 5643 5654 5661 5665 5672 5680 5686 5690 5695 5699 5702 5709 5708 5710 5713 5718 5731 5734 5739 5750 5751 5755 5759 5760 5761
5379 5394 5411 5433 5457 5471 5484 5487 5499 5517 5534 5546 5557 5566 5576 5587 5596 5606 5615 5626 5636 5648 5655 5660 5667 5672 5677 5682 5686 5691 5698 5700 5701 5702 5705 5712 5719 5728 5731 5735 5739 5739 5742 5745 5750
5371 5386 5404 5425 5448 5462 5470 5483 5496 5516 5531 5542 5553 5564 5574 5584 5594 5602 5612 5623 5632 5640 5646 5651 5660 5665 5670 5675 5681 5684 5688 5692 5695 5695 5697 5702 5713 5720 5721 5722 5726 5727 5728 5733 5736
5366 5376 5396 5422 5439 5451 5466 5478 5491 5511 5529 5541 5551 5561 5571 5579 5586 5595 5605 5616 5623 5632 5638 5646 5652 5656 5662 5668 5671 5676 5679 5683 5686 5688 5690 5694 5707 5709 5710 5711 5713 5716 5719 5720 5721
5356 5374 5394 5416 5429 5444 5460 5473 5493 5512 5526 5535 5545 5556 5565 5573 5582 5590 5598 5607 5614 5621 5630 5639 5641 5646 5651 5656 5661 5667 5673 5678 5680 5681 5685 5686 5699 5700 5702 5703 5705 5707 5710 5709 5711
5353 5369 5388 5409 5431 5445 5457 5471 5488 5509 5522 5533 5543 5552 5560 5567 5576 5583 5591 5599 5607 5614 5620 5626 5632 5639 5646 5651 5655 5658 5664 5668 5671 5672 5678 5681 5691 5690 5693 5693 5694 5696 5697 5699 5700
5354 5372 5388 5399 5423 5444 5462 5481 5493 5506 5519 5530 5540 5550 5556 5562 5570 5577 5585 5593 5600 5606 5612 5619 5626 5631 5635 5638 5641 5648 5653 5655 5659 5667 5662 5681 5672 5683 5681 5682 5682 5684 5688 5690 5692
5355 5375 5394 5416 5431 5448 5464 5480 5495 5507 5521 5527 5538 5546 5552 5562 5571 5578 5583 5587 5592 5598 5604 5611 5618 5623 5626 5629 5632 5635 5641 5646 5649 5651 5656 5658 5667 5675 5672 5671 5674 5677 5679 5678 5679
5365 5386 5410 5422 5434 5450 5466 5481 5496 5509 5518 5529 5538 5543 5549 5557 5563 5569 5575 5581 5589 5595 5600 5606 5611 5615 5617 5619 5620 5624 5634 5637 5640 5643 5647 5648 5662 5661 5655 5660 5668 5671 5667 5664 5666
Wind_Speed
75 74 73 73 73 70 68 66 64 64 59 60 59 57 54 50 48 48 44 45 46 50 50 49 49 47 47 44 34 31 28 28 27 26 22 22 19 21 22 22 21 20 18 16 15
77 75 75 74 75 73 69 66 64 64 61 59 58 57 54 53 50 48 46 46 47 48 50 48 48 51 48 46 41 34 32 30 29 27 24 22 21 19 20 22 21 20 18 18 17
76 75 74 75 76 74 71 68 64 63 62 60 57 57 56 54 48 45 46 41 45 45 48 50 49 50 53 49 50 42 39 36 32 30 27 22 20 19 19 20 23 22 17 19 18
72 71 72 72 74 75 73 70 67 64 62 62 61 58 59 55 51 48 49 51 47 43 48 50 49 50 49 52 49 49 45 41 37 31 33 28 23 20 19 22 24 22 19 20 18
70 68 67 68 70 74 75 74 71 67 64 64 64 62 59 62 53 53 49 49 48 49 49 48 52 50 53 50 52 50 48 50 40 39 30 28 26 22 21 21 25 25 25 23 20
70 69 68 68 70 74 77 76 72 69 67 65 66 64 61 60 56 50 49 51 49 47 45 48 50 52 52 52 51 51 46 50 48 42 39 32 28 22 23 25 24 26 28 26 24
73 73 73 73 72 73 75 75 71 68 66 63 59 58 59 56 53 54 55 49 52 48 48 49 51 54 55 54 54 52 49 48 47 48 42 40 36 20 27 28 25 25 28 28 27
74 73 72 71 71 75 75 75 72 69 66 63 60 62 57 55 56 55 53 53 48 50 51 51 53 53 57 55 55 54 53 51 48 45 46 43 37 26 32 30 27 26 26 29 28
74 73 73 71 68 63 63 65 69 70 67 65 62 63 64 58 45 49 51 52 49 54 55 54 54 57 56 54 54 56 54 53 50 47 47 47 39 30 35 31 27 28 28 27 27
75 75 74 74 69 68 64 62 60 65 69 68 66 65 63 58 64 47 42 45 45 47 60 58 59 57 55 56 52 54 55 55 51 48 50 46 42 34 39 35 32 30 27 25 27
80 77 75 73 70 67 66 64 63 65 67 68 70 70 66 58 58 54 53 39 38 44 49 57 61 59 53 52 55 48 56 53 51 50 51 50 48 36 42 40 35 34 28 21 21
79 81 77 74 69 68 66 66 64 61 61 65 67 66 65 64 57 54 52 47 47 47 48 55 59 53 53 53 54 51 51 54 51 51 52 51 52 39 43 41 38 33 32 25 24
68 80 80 75 73 67 69 68 61 61 63 59 60 64 65 63 59 53 43 45 40 41 41 45 47 52 53 52 53 53 49 50 55 51 53 52 55 43 42 45 41 36 30 28 26
54 76 81 77 77 73 74 73 63 63 62 65 61 62 65 64 59 54 59 53 41 34 32 31 38 46 50 51 48 49 53 49 54 54 53 53 57 45 44 44 41 39 33 29 28
63 59 82 82 79 76 63 63 66 68 68 63 63 60 64 66 64 54 58 68 61 54 44 39 37 39 40 44 48 48 46 50 51 54 55 51 55 44 43 43 40 39 37 35 33
64 62 79 83 79 72 65 63 70 70 72 67 61 61 62 67 64 61 57 59 65 58 47 42 40 39 38 40 42 41 40 42 46 49 53 45 50 49 37 41 40 41 40 40 37
63 72 77 85 82 69 50 71 72 71 69 63 58 57 60 63 64 63 60 62 62 54 52 48 44 44 43 40 36 37 37 38 41 42 46 51 56 56 38 37 38 42 42 42 41
63 71 76 81 87 84 71 86 73 73 67 53 52 55 57 61 62 61 60 58 58 60 48 47 44 45 46 45 41 41 42 42 41 41 38 43 46 50 45 43 44 42 46 46 45
63 72 83 90 78 71 78 70 77 83 64 60 58 56 59 58 61 61 57 58 58 61 52 38 47 45 42 39 42 42 42 39 41 43 45 44 36 39 40 35 42 45 45 47 48
65 71 86 95 74 79 77 79 84 79 55 57 59 58 56 58 60 59 59 58 56 60 60 46 46 46 44 43 42 41 39 40 40 44 45 42 40 32 36 37 38 43 47 50 51
65 80 87 90 89 67 80 84 76 73 62 60 54 53 50 52 52 55 53 54 57 55 56 51 46 48 48 43 41 41 39 39 37 40 42 43 35 31 35 35 32 35 42 49 51
65 73 84 93 81 75 75 65 76 68 58 55 52 44 44 45 51 51 51 51 54 54 54 51 50 50 49 48 47 44 40 39 35 38 39 42 30 32 35 34 34 33 34 34 42
66 78 84 98 71 63 66 68 79 66 55 47 50 43 41 45 46 49 49 50 52 54 54 53 52 53 54 51 49 46 42 40 41 44 41 41 27 30 31 33 31 28 26 31 30
69 78 89 81 72 73 76 76 79 66 48 50 48 42 42 44 44 43 48 48 50 50 50 50 48 49 50 52 52 50 46 44 46 51 48 44 27 31 33 35 36 32 32 29 33
63 75 90 91 72 72 67 53 64 56 52 56 46 39 39 43 44 45 41 40 42 43 45 46 49 51 53 54 53 50 47 48 48 48 58 39 45 37 40 42 42 39 35 35 38
70 76 71 87 58 62 67 55 56 55 49 43 47 41 37 38 39 39 38 40 43 45 47 49 47 48 51 53 53 49 48 49 51 52 52 54 42 40 41 36 35 35 33 34 34
71 80 80 68 61 55 62 60 49 51 45 40 37 33 34 35 36 36 36 35 36 36 40 43 43 45 48 46 47 52 48 47 48 49 50 53 34 39 44 40 35 34 35 38 36
Wind_Direction
253 251 248 246 243 241 241 241 242 244 245 245 244 244 246 244 240 241 241 241 241 239 240 239 244 246 249 244 236 238 243 241 240 238 239 252 252 255 255 249 250 254 260 262 258
252 249 245 243 242 239 239 237 238 239 241 244 245 242 244 245 242 240 244 241 242 240 240 239 238 243 249 246 240 232 231 234 237 236 234 235 241 251 254 250 245 247 256 260 258
250 247 243 241 241 238 236 235 234 236 238 241 244 245 244 244 240 239 232 237 239 240 242 240 237 238 242 248 241 228 227 227 231 236 233 233 234 239 255 256 245 244 247 255 256
248 245 243 241 240 238 235 234 233 234 235 239 240 240 241 240 237 236 234 238 237 238 241 242 238 236 239 243 245 242 236 237 226 236 237 238 239 243 242 255 252 246 236 249 252
247 245 242 240 239 238 235 234 233 232 234 236 239 238 238 239 241 238 235 233 237 236 239 241 242 241 238 239 242 247 240 243 238 237 237 240 240 244 242 246 257 252 242 239 244
246 243 240 238 236 237 235 235 234 233 233 235 238 238 239 238 234 234 232 234 233 234 235 240 240 240 242 235 239 240 243 247 247 243 241 245 245 247 253 243 249 254 245 238 238
239 237 236 236 236 235 236 237 236 235 235 234 236 238 239 236 235 235 235 232 231 230 233 238 239 240 239 239 234 238 240 243 247 248 247 248 245 250 252 249 245 245 243 236 238
237 235 234 233 233 233 234 234 235 235 234 233 234 234 230 236 237 237 236 237 233 234 234 236 236 237 240 239 237 235 235 238 244 246 248 250 244 245 251 250 250 248 240 241 240
235 233 234 233 231 227 228 230 232 233 230 230 229 232 233 231 231 225 232 237 238 236 238 236 237 237 238 239 241 237 237 238 240 245 247 246 244 244 249 251 245 248 246 238 240
233 231 229 232 231 227 225 225 227 229 227 227 226 230 231 228 229 238 231 235 243 241 237 235 237 236 236 235 239 240 240 238 238 238 243 244 244 237 248 248 244 244 246 241 243
232 228 225 225 228 228 227 224 224 225 226 232 233 234 229 228 229 233 225 229 230 231 233 234 236 236 239 238 239 240 237 238 235 237 238 242 244 234 242 246 248 248 249 249 247
226 223 221 219 221 225 225 225 224 229 228 227 226 228 231 230 228 223 227 231 233 235 241 238 234 236 232 234 239 239 239 236 235 234 238 238 242 232 240 244 244 248 248 252 259
222 216 214 213 215 221 227 227 224 224 226 227 226 226 227 228 227 223 214 211 211 232 239 236 237 237 234 233 237 238 239 240 238 237 237 240 243 232 235 242 243 245 248 251 254
207 211 207 207 211 211 217 225 225 224 225 225 219 218 224 226 226 217 207 206 200 206 201 225 232 232 233 233 235 236 236 239 239 236 235 240 245 234 232 239 245 247 247 246 246
203 201 201 202 205 209 212 207 211 218 222 222 219 218 217 223 224 221 213 221 219 225 233 229 219 226 226 227 232 234 232 235 237 238 237 238 246 234 234 237 241 247 247 244 242
203 196 193 198 199 203 209 208 206 213 220 222 222 219 218 219 221 219 218 220 227 236 232 233 222 221 219 219 222 226 225 230 234 239 240 235 244 245 234 239 237 243 247 248 245
202 191 188 196 192 200 202 196 204 212 216 220 222 221 222 221 220 220 221 221 222 221 223 229 221 218 220 217 220 227 232 235 239 241 243 243 244 252 241 244 241 239 244 247 248
203 201 188 193 190 194 205 219 213 212 215 211 215 222 222 219 219 222 219 220 217 212 223 225 218 218 225 227 229 231 235 237 244 248 246 247 244 245 249 242 241 237 235 241 247
202 198 190 182 187 193 206 211 207 207 212 210 217 219 218 217 218 218 221 223 221 215 220 220 219 221 227 229 229 230 236 242 249 253 253 252 247 242 244 240 245 244 238 236 239
202 199 186 180 185 191 202 207 204 210 214 214 221 220 220 219 217 218 220 216 220 219 223 225 222 223 229 231 233 234 238 243 249 256 258 257 253 242 249 253 247 246 243 240 239
197 193 183 187 186 195 204 208 207 205 212 214 223 222 223 221 221 221 223 219 218 222 226 227 223 227 230 230 233 238 240 245 251 256 258 256 250 243 247 251 248 248 249 243 240
191 198 185 183 189 194 198 210 200 207 205 219 222 219 222 223 222 223 222 218 219 222 225 229 229 232 235 237 237 238 239 242 250 258 257 255 238 242 246 247 248 244 241 250 245
188 189 183 184 193 187 200 209 209 205 205 215 215 213 220 222 226 224 221 219 221 224 226 227 231 234 237 240 240 242 242 244 235 233 233 244 234 231 239 248 251 253 243 241 244
185 185 185 181 185 191 197 199 194 200 212 214 216 218 218 219 220 225 225 223 223 227 229 230 235 240 243 246 249 251 251 250 246 245 236 243 231 244 250 250 248 245 250 237 237
186 180 185 185 182 187 198 197 194 207 212 209 214 222 225 222 219 220 216 221 224 226 231 234 236 238 241 245 247 247 247 249 247 242 244 237 242 237 246 251 251 255 255 250 247
183 181 186 172 185 184 193 204 201 204 207 213 214 221 220 222 226 227 221 222 227 228 231 233 235 236 240 244 247 248 246 244 245 243 245 247 238 256 258 254 248 249 253 255 259
177 178 173 180 186 183 185 188 192 200 207 205 211 213 216 214 215 221 225 228 233 234 232 232 233 234 240 245 248 247 245 249 249 247 248 248 233 252 254 247 246 247 250 251 250